�������l�o���
Date,Time,MP-1(��Sv/h),MP-2(��Sv/h),MP-3(��Sv/h),MP-4(��Sv/h),MP-5(��Sv/h),MP-6(��Sv/h),MP-7(��Sv/h),MP-8(��Sv/h),����,����(m/s),���J
2019/03/01,00:00,0.754,1.099,0.772,1.434,1.024,0.436,0.779,0.736,�k�k��,5.8,��
2019/03/01,00:10,0.753,1.099,0.771,1.436,1.022,0.436,0.779,0.735,�k�k��,6.2,��
2019/03/01,00:20,0.752,1.097,0.771,1.434,1.024,0.435,0.780,0.738,�k�k��,6.2,��
2019/03/01,00:30,0.753,1.096,0.770,1.434,1.023,0.437,0.779,0.737,�k�k��,5.6,��
2019/03/01,00:40,0.754,1.096,0.772,1.433,1.024,0.437,0.777,0.736,�k�k��,5.8,��
2019/03/01,00:50,0.755,1.099,0.772,1.434,1.024,0.436,0.779,0.735,�k�k��,6.4,��
2019/03/01,01:00,0.754,1.100,0.770,1.433,1.022,0.435,0.778,0.735,�k�k��,7.0,��
2019/03/01,01:10,0.754,1.099,0.772,1.434,1.025,0.436,0.777,0.737,�k�k��,6.0,��
2019/03/01,01:20,0.752,1.100,0.771,1.434,1.021,0.435,0.777,0.735,�k�k��,6.4,��
2019/03/01,01:30,0.756,1.101,0.771,1.432,1.024,0.435,0.779,0.736,�k�k��,7.4,��
2019/03/01,01:40,0.755,1.098,0.771,1.436,1.022,0.436,0.779,0.737,�k�k��,8.8,��
2019/03/01,01:50,0.755,1.100,0.772,1.434,1.024,0.436,0.778,0.736,�k�k��,7.3,��
2019/03/01,02:00,0.755,1.099,0.772,1.434,1.024,0.436,0.778,0.737,�k,8.0,��
2019/03/01,02:10,0.754,1.099,0.773,1.435,1.024,0.436,0.778,0.737,�k�k��,7.0,��
2019/03/01,02:20,0.754,1.101,0.772,1.434,1.022,0.437,0.778,0.737,�k�k��,5.0,��
2019/03/01,02:30,0.754,1.101,0.773,1.435,1.026,0.437,0.781,0.737,�k�k��,4.6,��
2019/03/01,02:40,0.756,1.101,0.771,1.435,1.024,0.436,0.778,0.737,�k�k��,4.8,��
2019/03/01,02:50,0.755,1.099,0.772,1.434,1.024,0.437,0.778,0.736,�k�k��,4.8,��
2019/03/01,03:00,0.754,1.100,0.772,1.436,1.025,0.437,0.778,0.739,�k�k��,5.1,��
2019/03/01,03:10,0.754,1.101,0.773,1.435,1.023,0.437,0.779,0.735,�k�k��,4.9,��
2019/03/01,03:20,0.753,1.096,0.772,1.434,1.025,0.438,0.779,0.737,�k�k��,4.7,��
2019/03/01,03:30,0.756,1.100,0.773,1.436,1.023,0.436,0.778,0.738,�k�k��,4.8,��
2019/03/01,03:40,0.756,1.101,0.770,1.435,1.025,0.434,0.779,0.735,�k�k��,5.0,��
2019/03/01,03:50,0.755,1.101,0.771,1.436,1.024,0.437,0.780,0.738,�k�k��,5.1,��
2019/03/01,04:00,0.755,1.100,0.771,1.436,1.024,0.437,0.781,0.737,�k�k��,5.0,��
2019/03/01,04:10,0.754,1.100,0.772,1.437,1.024,0.436,0.777,0.737,�k�k��,4.7,��
2019/03/01,04:20,0.755,1.100,0.772,1.435,1.026,0.436,0.779,0.737,�k�k��,4.6,��
2019/03/01,04:30,0.756,1.100,0.772,1.436,1.023,0.438,0.778,0.737,�k�k��,4.2,��
2019/03/01,04:40,0.753,1.098,0.773,1.438,1.025,0.437,0.777,0.737,�k�k��,3.6,��
2019/03/01,04:50,0.756,1.101,0.772,1.438,1.024,0.437,0.779,0.738,�k�k��,3.8,��
2019/03/01,05:00,0.756,1.100,0.771,1.434,1.024,0.436,0.778,0.738,�k�k��,3.8,��
2019/03/01,05:10,0.756,1.100,0.774,1.436,1.024,0.436,0.777,0.737,�k�k��,3.7,��
2019/03/01,05:20,0.754,1.100,0.771,1.436,1.025,0.436,0.779,0.736,�k�k��,4.0,��
2019/03/01,05:30,0.757,1.103,0.773,1.434,1.024,0.437,0.780,0.735,�k�k��,3.6,��
2019/03/01,05:40,0.756,1.099,0.774,1.436,1.024,0.436,0.779,0.736,�k�k��,4.0,��
2019/03/01,05:50,0.755,1.101,0.773,1.435,1.025,0.437,0.778,0.738,�k�k��,4.7,��
2019/03/01,06:00,0.756,1.102,0.773,1.434,1.025,0.436,0.779,0.737,�k�k��,4.1,��
2019/03/01,06:10,0.755,1.099,0.771,1.435,1.026,0.438,0.780,0.737,�k,4.4,��
2019/03/01,06:20,0.753,1.101,0.770,1.437,1.025,0.439,0.779,0.735,�k,4.2,��
2019/03/01,06:30,0.754,1.102,0.772,1.434,1.024,0.437,0.779,0.737,�k�k��,4.3,��
2019/03/01,06:40,0.754,1.102,0.772,1.438,1.028,0.437,0.778,0.738,�k�k��,3.9,��
2019/03/01,06:50,0.757,1.101,0.772,1.436,1.026,0.435,0.779,0.737,�k�k��,4.3,��
2019/03/01,07:00,0.755,1.100,0.773,1.437,1.027,0.436,0.778,0.736,�k�k��,4.8,��
2019/03/01,07:10,0.756,1.098,0.772,1.437,1.027,0.436,0.777,0.737,�k�k��,4.9,��
2019/03/01,07:20,0.755,1.101,0.771,1.435,1.024,0.435,0.778,0.738,�k�k��,4.3,��
2019/03/01,07:30,0.754,1.098,0.772,1.438,1.025,0.437,0.779,0.737,�k,4.0,��
2019/03/01,07:40,0.755,1.100,0.772,1.437,1.028,0.436,0.781,0.735,�k,3.6,��
2019/03/01,07:50,0.755,1.103,0.772,1.436,1.026,0.437,0.779,0.738,�k,3.2,��
2019/03/01,08:00,0.755,1.106,0.774,1.438,1.027,0.436,0.778,0.740,�k,1.7,��
2019/03/01,08:10,0.756,1.105,0.773,1.438,1.026,0.436,0.781,0.738,�k�k��,2.0,��
2019/03/01,08:20,0.756,1.103,0.773,1.438,1.026,0.437,0.781,0.739,�k,2.3,�L
2019/03/01,08:30,0.756,1.104,0.772,1.439,1.029,0.438,0.780,0.739,�k,1.7,��
2019/03/01,08:40,0.758,1.105,0.771,1.440,1.028,0.437,0.778,0.737,�k�k��,1.9,��
2019/03/01,08:50,0.756,1.103,0.771,1.441,1.031,0.436,0.777,0.739,�k,1.7,��
2019/03/01,09:00,0.749,1.106,0.773,1.439,1.030,0.438,0.779,0.738,�k,2.3,��
2019/03/01,09:10,0.738,1.105,0.772,1.441,1.030,0.436,0.778,0.739,�k�k��,3.3,��
2019/03/01,09:20,0.742,1.104,0.774,1.435,1.031,0.437,0.777,0.738,�k,3.6,��
2019/03/01,09:30,-,1.105,0.772,1.434,1.030,0.437,0.777,0.740,�k�k��,3.7,��
2019/03/01,09:40,-,1.106,0.771,1.435,1.031,0.439,0.778,0.739,�k,3.7,��
2019/03/01,09:50,-,1.103,0.773,1.433,1.030,0.437,0.777,0.739,�k,3.7,��
2019/03/01,10:00,0.739,1.106,0.775,1.435,1.032,0.438,0.777,0.740,�k,4.4,��
2019/03/01,10:10,0.740,1.106,0.775,1.437,1.034,0.437,0.778,0.739,�k�k��,4.4,��
2019/03/01,10:20,0.743,1.107,0.775,1.435,1.034,0.438,0.777,0.740,�k�k��,4.6,��
2019/03/01,10:30,0.742,1.105,0.774,1.434,1.036,0.439,0.777,0.738,�k�k��,4.6,��
2019/03/01,10:40,0.739,1.108,0.773,1.437,1.034,0.438,0.780,0.738,�k�k��,4.0,��
2019/03/01,10:50,0.741,1.109,0.774,1.437,1.033,0.437,0.777,0.738,�k��,4.2,��
2019/03/01,11:00,0.740,1.108,0.774,1.435,1.035,0.438,0.778,0.738,�k�k��,4.4,��
2019/03/01,11:10,0.744,1.107,0.775,1.437,1.035,0.438,0.780,0.737,�k��,4.9,��
2019/03/01,11:20,0.748,1.109,0.777,1.438,1.035,0.437,0.778,0.739,�k�k��,4.8,��
2019/03/01,11:30,0.750,1.110,0.776,1.440,1.036,0.437,0.780,0.740,�k�k��,5.5,��
2019/03/01,11:40,0.752,1.109,0.777,1.438,1.036,0.437,0.778,0.738,�k�k��,5.1,��
2019/03/01,11:50,0.751,1.110,0.777,1.439,1.035,0.439,0.780,0.737,�k��,5.0,��
2019/03/01,12:00,0.750,1.110,0.778,1.444,1.034,0.439,0.779,0.737,�k��,4.5,��
2019/03/01,12:10,0.749,1.111,0.778,1.443,1.034,0.439,0.779,0.738,�k��,4.4,��
2019/03/01,12:20,0.746,1.114,0.777,1.444,1.034,0.439,0.782,0.740,�k��,4.2,��
2019/03/01,12:30,0.752,1.110,0.780,1.444,1.036,0.440,0.781,0.739,���k��,4.2,��
2019/03/01,12:40,0.755,1.110,0.779,1.441,1.039,0.439,0.781,0.740,�k��,3.3,��
2019/03/01,12:50,0.754,1.115,0.778,1.445,1.040,0.440,0.780,0.738,���k��,4.3,��
2019/03/01,13:00,0.760,1.115,0.780,1.446,1.038,0.438,0.779,0.740,���k��,3.2,��
2019/03/01,13:10,0.760,1.113,0.777,1.446,1.040,0.440,0.781,0.742,���k��,3.8,��
2019/03/01,13:20,0.759,1.116,0.779,1.442,1.038,0.441,0.781,0.739,�k��,3.3,��
2019/03/01,13:30,0.756,1.114,0.779,1.447,1.041,0.442,0.781,0.738,�k��,3.3,��
2019/03/01,13:40,0.757,1.119,0.780,1.444,1.039,0.440,0.782,0.739,�k��,2.6,��
2019/03/01,13:50,0.755,1.116,0.781,1.445,1.039,0.441,0.782,0.738,���k��,2.8,��
2019/03/01,14:00,0.752,1.116,0.779,1.446,1.041,0.439,0.780,0.739,���k��,2.5,��
2019/03/01,14:10,0.756,1.117,0.778,1.447,1.041,0.441,0.780,0.739,���k��,2.6,��
2019/03/01,14:20,0.756,1.115,0.777,1.445,1.041,0.440,0.780,0.738,���k��,3.2,��
2019/03/01,14:30,0.757,1.115,0.777,1.447,1.041,0.441,0.781,0.737,���쓌,2.8,��
2019/03/01,14:40,0.755,1.113,0.777,1.448,1.041,0.441,0.781,0.738,���쓌,3.0,��
2019/03/01,14:50,0.762,1.115,0.779,1.444,1.041,0.439,0.780,0.737,�쓌,3.9,��
2019/03/01,15:00,0.761,1.117,0.780,1.443,1.040,0.440,0.780,0.738,���쓌,3.0,��
2019/03/01,15:10,0.759,1.115,0.778,1.444,1.041,0.440,0.781,0.738,��,2.6,��
2019/03/01,15:20,0.758,1.120,0.781,1.445,1.042,0.440,0.782,0.739,���쓌,3.8,��
2019/03/01,15:30,-,1.121,0.781,1.447,1.040,0.442,0.780,0.739,���쓌,3.6,��
2019/03/01,15:40,-,1.121,0.781,1.446,1.045,0.441,0.782,0.740,���쓌,2.6,��
2019/03/01,15:50,-,1.118,0.780,1.444,1.043,0.440,0.782,0.739,���쓌,3.0,��
2019/03/01,16:00,0.755,1.122,0.779,1.444,1.041,0.441,0.782,0.742,���쓌,2.6,��
2019/03/01,16:10,0.755,1.119,0.779,1.447,1.042,0.440,0.783,0.742,���쓌,1.7,��
2019/03/01,16:20,0.759,1.121,0.778,1.446,1.043,0.440,0.782,0.741,��쓌,2.8,��
2019/03/01,16:30,0.767,1.122,0.780,1.448,1.044,0.440,0.782,0.743,��쓌,3.0,��
2019/03/01,16:40,0.767,1.123,0.780,1.446,1.043,0.441,0.783,0.741,�쓌,3.0,��
2019/03/01,16:50,0.767,1.122,0.780,1.447,1.044,0.442,0.783,0.741,��쓌,2.0,��
2019/03/01,17:00,0.768,1.121,0.781,1.446,1.045,0.439,0.781,0.743,��쓌,1.7,��
2019/03/01,17:10,0.767,1.123,0.780,1.446,1.045,0.441,0.784,0.741,��쐼,1.2,��
2019/03/01,17:20,0.768,1.121,0.778,1.447,1.046,0.442,0.783,0.741,���k��,2.2,��
2019/03/01,17:30,0.768,1.120,0.780,1.446,1.046,0.441,0.781,0.742,���k��,3.8,��
2019/03/01,17:40,0.767,1.124,0.779,1.445,1.042,0.441,0.782,0.742,���k��,4.8,��
2019/03/01,17:50,0.768,1.122,0.780,1.447,1.042,0.440,0.783,0.741,�k��,3.5,��
2019/03/01,18:00,0.766,1.123,0.779,1.446,1.045,0.441,0.781,0.741,���k��,3.8,��
2019/03/01,18:10,0.768,1.122,0.779,1.446,1.043,0.441,0.783,0.740,��,4.0,��
2019/03/01,18:20,0.767,1.120,0.780,1.448,1.044,0.440,0.784,0.740,���쐼,5.1,��
2019/03/01,18:30,0.766,1.120,0.782,1.449,1.044,0.441,0.783,0.740,��,7.2,��
2019/03/01,18:40,0.766,1.119,0.779,1.447,1.046,0.439,0.783,0.742,��,6.9,��
2019/03/01,18:50,0.767,1.120,0.780,1.446,1.043,0.440,0.784,0.740,��,6.3,��
2019/03/01,19:00,0.766,1.121,0.780,1.450,1.045,0.439,0.783,0.741,���k��,7.6,��
2019/03/01,19:10,0.768,1.123,0.781,1.447,1.042,0.438,0.782,0.741,���k��,7.2,��
2019/03/01,19:20,0.766,1.121,0.780,1.446,1.045,0.440,0.782,0.740,��,5.6,��
2019/03/01,19:30,0.764,1.120,0.781,1.446,1.044,0.440,0.783,0.741,��,5.1,��
2019/03/01,19:40,0.766,1.118,0.779,1.448,1.043,0.439,0.783,0.742,���쐼,4.1,��
2019/03/01,19:50,0.767,1.116,0.780,1.448,1.042,0.440,0.784,0.742,��,4.2,��
2019/03/01,20:00,0.764,1.120,0.780,1.448,1.044,0.440,0.781,0.743,��,3.6,��
2019/03/01,20:10,0.766,1.118,0.779,1.447,1.043,0.440,0.782,0.741,��,3.7,��
2019/03/01,20:20,0.766,1.120,0.779,1.448,1.043,0.439,0.784,0.740,���k��,2.6,��
2019/03/01,20:30,0.765,1.123,0.779,1.446,1.039,0.439,0.782,0.740,���k��,2.3,��
2019/03/01,20:40,0.763,1.118,0.781,1.446,1.043,0.439,0.782,0.740,�k��,3.9,��
2019/03/01,20:50,0.763,1.122,0.779,1.448,1.041,0.440,0.781,0.741,�k��,4.9,��
2019/03/01,21:00,0.765,1.119,0.781,1.448,1.044,0.438,0.781,0.741,�k��,5.4,��
2019/03/01,21:10,0.765,1.122,0.780,1.447,1.045,0.439,0.782,0.740,�k��,5.5,��
2019/03/01,21:20,0.765,1.123,0.780,1.450,1.044,0.439,0.781,0.740,�k��,5.4,��
2019/03/01,21:30,0.765,1.121,0.781,1.446,1.041,0.441,0.781,0.741,�k��,5.5,��
2019/03/01,21:40,0.765,1.119,0.779,1.449,1.043,0.440,0.781,0.740,�k��,6.0,��
2019/03/01,21:50,0.763,1.119,0.779,1.445,1.042,0.440,0.781,0.740,�k��,5.6,��
2019/03/01,22:00,0.764,1.119,0.779,1.445,1.043,0.438,0.781,0.741,�k��,5.4,��
2019/03/01,22:10,0.764,1.121,0.778,1.448,1.044,0.439,0.781,0.740,�k��,5.2,��
2019/03/01,22:20,0.764,1.118,0.779,1.447,1.041,0.438,0.780,0.742,���k��,4.1,��
2019/03/01,22:30,0.765,1.119,0.780,1.446,1.043,0.439,0.781,0.740,��,3.4,��
2019/03/01,22:40,0.765,1.118,0.781,1.446,1.043,0.440,0.780,0.740,��,5.2,��
2019/03/01,22:50,0.763,1.120,0.779,1.448,1.043,0.440,0.782,0.741,��,5.7,��
2019/03/01,23:00,0.764,1.118,0.779,1.445,1.043,0.438,0.781,0.741,��,4.0,��
2019/03/01,23:10,0.764,1.118,0.779,1.447,1.041,0.440,0.783,0.741,��,4.2,��
2019/03/01,23:20,0.765,1.119,0.780,1.449,1.042,0.440,0.781,0.740,��,6.2,��
2019/03/01,23:30,0.762,1.119,0.777,1.448,1.042,0.438,0.781,0.740,��,5.0,��
2019/03/01,23:40,0.764,1.120,0.779,1.449,1.041,0.439,0.782,0.739,���k��,3.4,��
2019/03/01,23:50,0.764,1.119,0.779,1.448,1.043,0.439,0.782,0.740,���k��,4.0,��
